TimeMST,TemperatureF,Dew PointF,Humidity,Sea Level PressureIn,VisibilityMPH,Wind Direction,Wind SpeedMPH,Gust SpeedMPH,PrecipitationIn,Events,Conditions,WindDirDegrees,DateUTC
12:53 AM,15.1,12.0,88,30.54,7.0,WNW,6.9,-,N/A,,Clear,290,2012-02-05 07:53:00
1:53 AM,12.9,10.9,92,30.54,9.0,WNW,5.8,-,N/A,,Clear,290,2012-02-05 08:53:00
2:53 AM,12.9,10.0,88,30.54,10.0,West,10.4,-,N/A,,Clear,280,2012-02-05 09:53:00
3:53 AM,12.0,9.0,88,30.53,10.0,West,8.1,-,N/A,,Clear,280,2012-02-05 10:53:00
4:53 AM,10.9,8.1,88,30.54,10.0,WNW,3.5,-,N/A,,Clear,290,2012-02-05 11:53:00
5:53 AM,10.9,7.0,84,30.55,10.0,WNW,4.6,-,N/A,,Clear,290,2012-02-05 12:53:00
6:53 AM,10.0,7.0,87,30.54,10.0,WNW,5.8,-,N/A,,Clear,300,2012-02-05 13:53:00
7:53 AM,12.9,9.0,84,30.55,10.0,WNW,9.2,-,N/A,,Clear,290,2012-02-05 14:53:00
8:53 AM,16.0,10.9,81,30.56,10.0,West,6.9,-,N/A,,Clear,280,2012-02-05 15:53:00
9:53 AM,21.9,15.1,75,30.54,10.0,WNW,6.9,-,N/A,,Clear,300,2012-02-05 16:53:00
10:53 AM,25.0,18.0,75,30.53,10.0,WNW,8.1,-,N/A,,Clear,290,2012-02-05 17:53:00
11:53 AM,28.0,19.9,72,30.50,10.0,West,9.2,-,N/A,,Clear,270,2012-02-05 18:53:00
12:53 PM,32.0,23.0,69,30.47,10.0,WNW,3.5,-,N/A,,Clear,290,2012-02-05 19:53:00
1:53 PM,30.9,24.1,76,30.46,10.0,West,6.9,-,N/A,,Clear,270,2012-02-05 20:53:00
2:53 PM,33.1,25.0,72,30.45,9.0,West,4.6,-,N/A,,Clear,280,2012-02-05 21:53:00
3:53 PM,32.0,25.0,75,30.44,7.0,WSW,4.6,-,N/A,,Clear,250,2012-02-05 22:53:00
4:53 PM,28.9,24.1,82,30.44,5.0,Calm,Calm,-,N/A,,Haze,0,2012-02-05 23:53:00
5:53 PM,24.1,21.0,88,30.44,5.0,West,3.5,-,N/A,,Clear,260,2012-02-06 00:53:00
6:53 PM,21.0,18.0,88,30.45,4.0,Calm,Calm,-,N/A,,Clear,0,2012-02-06 01:53:00
7:53 PM,19.9,18.0,92,30.44,4.0,WSW,4.6,-,N/A,,Clear,250,2012-02-06 02:53:00
8:53 PM,17.1,16.0,96,30.43,4.0,West,3.5,-,N/A,,Clear,280,2012-02-06 03:53:00
9:53 PM,15.1,12.0,88,30.40,4.0,Calm,Calm,-,N/A,,Clear,0,2012-02-06 04:53:00
10:06 PM,10.4,10.4,100,30.26,1.2,Calm,Calm,-,N/A,,Clear,0,2012-02-06 05:06:00
10:15 PM,8.6,6.8,92,30.26,0.8,Calm,Calm,-,N/A,,Clear,0,2012-02-06 05:15:00
10:22 PM,10.4,6.8,85,30.26,1.2,Calm,Calm,-,N/A,,Clear,0,2012-02-06 05:22:00
10:36 PM,12.2,8.6,85,30.26,3.0,Calm,Calm,-,N/A,,Clear,0,2012-02-06 05:36:00
10:53 PM,12.0,9.0,88,30.40,4.0,WSW,4.6,-,N/A,,Clear,250,2012-02-06 05:53:00
11:53 PM,12.9,10.9,92,30.38,5.0,West,8.1,-,N/A,,Clear,260,2012-02-06 06:53:00